Regional Weather Roundup
Issued by NWS

Home | Current Version | Previous Version | Graphics & Text | Print | Product List | Glossary On
Versions: 1 2 3 4 5 6 7 8 9 10 11 12 13 14 15 16 17 18 19 20 21 22 23 24 25 26 27 28
000
ASUS45 KSLC 221810
RWRUT

UTAH REGIONAL WEATHER ROUNDUP
NATIONAL WEATHER SERVICE SALT LAKE CITY UT
1100 AM MST MON JAN 22 2018

UTZ001>011-023>025-221900-

NORTHERN UTAH

CITY           SKY/WX    TMP DP  RH WIND       PRES   REMARKS
BRIGHAM CITY   CLOUDY    31  17  56 CALM      30.33S
HILL AFB       CLOUDY    21  11  66 E13       30.30R WCI   9
LOGAN          CLOUDY    23  16  74 CALM      30.30S
OGDEN          CLOUDY    25  14  63 S8        30.31R WCI  16
SALT LAKE CITY PTSUNNY   30  19  63 S14       30.32R WCI  19
TOOELE VALLEY  CLOUDY    27  19  74 S13       30.32R WCI  16
WENDOVER       MOSUNNY   25  18  74 NE7       30.32R WCI  17
HEBER CITY     MOCLDY    18  10  73 CALM      30.30S
WEST JORDAN    CLOUDY    25  19  78 S16G22    30.31F WCI  13

$$

UTZ011>015-024>027-221900-

CENTRAL/NORTHEAST UTAH

CITY           SKY/WX    TMP DP  RH WIND       PRES   REMARKS
PROVO AIRPORT  CLOUDY    29  20  69 VRB5      30.37R WCI  24
MOAB/CANYONLAN SUNNY     31  20  63 E7        30.32S WCI  24
DELTA          MOSUNNY   16  14  93 CALM      30.35R
PRICE          SUNNY     23  12  62 S5        30.28R WCI  17
RICHFIELD      SUNNY     12  12 100 CALM      30.35S
ROOSEVELT      MOSUNNY   23  12  63 E3        30.35R
VERNAL         MOSUNNY   20  10  65 CALM      30.32R

$$

UTZ013>016-019>022-027-221900-

SOUTHERN UTAH

CITY           SKY/WX    TMP DP  RH WIND       PRES   REMARKS
BRYCE CANYON   SUNNY     25   9  50 SW6       30.24S WCI  18
CEDAR CITY     SUNNY     16  12  84 CALM      30.28S
MILFORD        SUNNY     11   8  88 S3        30.33R
ST GEORGE      PTCLDY    35  20  54 CALM      30.39S
HANKSVILLE     SUNNY     27  10  50 CALM      30.37R
KANAB          SUNNY     32   9  37 SE2       30.35S
BLANDING         N/A     29  13  51 CALM      30.36S

$$

REGIONAL REPORTS     COLORADO/ARIZONA

CITY           SKY/WX    TMP DP  RH WIND       PRES   REMARKS
CRAIG, CO      SUNNY      7   2  80 SW5       30.29S WCI  -2
GRAND JUNCTION SUNNY     22  16  78 E5        30.34F WCI  16
RIFLE, CO      SUNNY     22  13  68 CALM      30.33F
MONTROSE, CO   SUNNY     23  11  60 CALM      30.35F
CORTEZ, CO     SUNNY     27  11  51 E7        30.27F WCI  19
COLORADO CITY    N/A     32  19  59 SE3       30.34S
PAGE, AZ       SUNNY     33  11  39 N3        30.32S
GRAND CANYON   SUNNY     36  -1  21 CALM      30.26S
KINGMAN, AZ    SUNNY    N/A N/A N/A NE5       30.30F
FLAGSTAFF, AZ  SUNNY     27   7  42 E8        30.26R WCI  19

$$

REGIONAL REPORTS    NEVADA/IDAHO/WYOMING

CITY           SKY/WX    TMP DP  RH WIND       PRES   REMARKS
LAS VEGAS, NV  MOSUNNY   47  22  37 VRB3      30.35S
ELY, NY        CLOUDY    20  14  77 S10       30.29R WCI   9
ELKO, NV       FLURRIES  32  26  78 VRB3      30.28R
POCATELLO, ID  CLOUDY    34  21  59 S17       30.22S WCI  23
BURLEY, ID     LGT SNOW  33  28  81 S18       30.21R VSB 1   WCI  22
EVANSTON, WY   CLOUDY    15  12  88 SW12      30.20R WCI   2
ROCK SPRINGS,  PTSUNNY   16   9  74 W8        30.20R WCI   5

$$




USA.gov is the U.S. government's official web portal to all federal, state and local government web resources and services.